Wenatchee, WA
on Wednesday, December 26, 2012

Wednesday
Previous Day Next Day
Daily Summary
 ActualAverageRecord
Temperature
Mean Temperature °F 25°F  
Max Temperature 34°F 31°F 56°F (1980)
Min Temperature 28°F 19°F 5°F (1990)
Degree Days
Heating Degree Days 34 40  
Month to date heating degree days 818 1017  
Since 1 July heating degree days 1977 2899  
Cooling Degree Days 0 0  
Month to date cooling degree days 0 0  
Year to date cooling degree days 888 249  
Moisture
Dew Point 28°F   
Average Humidity 89    
Maximum Humidity 92    
Minimum Humidity 85    
Precipitation
Precipitation 0.02 in 0.08 in 0.48 in (1996)
Month to date precipitation 1.69 2.14  
Year to date precipitation 9.20 16.69  
Snow
Snow 0.00 in 0.60 in in ()
Month to date snowfall 13.8  
Since 1 July snowfall 21.7  
Snow Depth in   
Wind
Wind Speed 3 mph   
Max Wind Speed 8 mph   
Max Gust Speed 8 mph   
Visibility 7 miles   
Events Fog , Snow   

Key: T is trace of precipitation, MM is missing value
Source: NWS Daily Summary
Time(PST)TemperatureDew PointHumidity Pressure Visibility Wind DirectionWind SpeedGust SpeedPrecipitationEvents Conditions
12:55 AM 30.0°F 28.0°F 92% 29.86 in 10.0 miles NW 5.8 mph - N/A   Overcast
1:55 AM 30.0°F 28.0°F 92% 29.85 in 9.0 miles Calm Calm - N/A   Overcast
3:44 AM 30.2°F 28.4°F 93% 29.81 in 9.0 miles NNW 3.5 mph - N/A   Overcast
3:55 AM 30.9°F 28.0°F 89% 29.84 in 9.0 miles NW 4.6 mph - N/A   Overcast
4:12 AM 30.2°F 28.4°F 93% 29.81 in 2.0 miles WNW 5.8 mph - 0.01 in Snow Light Snow
4:20 AM 30.2°F 28.4°F 93% 29.81 in 3.0 miles WNW 5.8 mph - 0.01 in Snow Light Snow
4:43 AM 30.2°F 28.4°F 93% 29.80 in 2.5 miles NW 4.6 mph - 0.01 in Snow Light Snow
4:55 AM 30.0°F 28.0°F 92% 29.84 in 2.5 miles NW 4.6 mph - 0.01 in Snow Light Snow
5:08 AM 30.2°F 28.4°F 93% 29.80 in 4.0 miles NW 5.8 mph - 0.00 in Snow Light Snow
5:50 AM 30.2°F 28.4°F 93% 29.80 in 10.0 miles NW 3.5 mph - 0.01 in   Overcast
5:55 AM 30.0°F 28.0°F 92% 29.84 in 10.0 miles NNW 3.5 mph - 0.01 in   Overcast
6:24 AM 30.2°F 28.4°F 93% 29.81 in 10.0 miles WNW 5.8 mph - N/A   Overcast
6:55 AM 30.9°F 28.0°F 89% 29.85 in 10.0 miles NW 5.8 mph - N/A   Overcast
7:53 AM 28.4°F 26.6°F 93% 29.81 in 7.0 miles WNW 3.5 mph - N/A   Overcast
7:55 AM 28.9°F 27.0°F 92% 29.85 in 7.0 miles WNW 3.5 mph - N/A   Overcast
8:06 AM 30.2°F 28.4°F 93% 29.81 in 7.0 miles NNW 4.6 mph - N/A   Overcast
8:55 AM 30.9°F 28.9°F 92% 29.86 in 8.0 miles WNW 6.9 mph - N/A   Overcast
9:11 AM 30.2°F 28.4°F 93% 29.83 in 10.0 miles West 6.9 mph - N/A   Overcast
9:55 AM 30.9°F 28.0°F 89% 29.88 in 10.0 miles West 4.6 mph - 0.00 in   Overcast
10:32 AM 30.2°F 28.4°F 93% 29.85 in 7.0 miles NW 3.5 mph - N/A   Overcast
10:55 AM 30.9°F 28.9°F 92% 29.88 in 4.0 miles NW 3.5 mph - 0.00 in Snow Light Snow
11:55 AM 32.0°F 28.9°F 88% 29.86 in 10.0 miles Calm Calm - 0.00 in   Overcast
12:13 PM 32.0°F 28.4°F 87% 29.83 in 5.0 miles Calm Calm - 0.00 in Snow Light Snow
12:48 PM 32.0°F 28.4°F 87% 29.82 in 5.0 miles West 3.5 mph - 0.00 in Snow Light Snow
12:55 PM 32.0°F 28.9°F 88% 29.86 in 7.0 miles West 3.5 mph - 0.00 in Snow Light Snow
1:21 PM 32.0°F 28.4°F 87% 29.82 in 9.0 miles WNW 3.5 mph - 0.00 in   Overcast
1:55 PM 32.0°F 30.0°F 92% 29.87 in 6.0 miles Calm Calm - 0.00 in Snow Light Snow
2:55 PM 32.0°F 28.9°F 88% 29.88 in 10.0 miles West 3.5 mph - N/A   Mostly Cloudy
3:09 PM 33.8°F 28.4°F 81% 29.85 in 10.0 miles West 4.6 mph - N/A   Overcast
3:17 PM 33.8°F 30.2°F 87% 29.85 in 10.0 miles West 3.5 mph - N/A   Overcast
3:26 PM 33.8°F 30.2°F 87% 29.85 in 10.0 miles Calm Calm - N/A   Overcast
3:36 PM 33.8°F 30.2°F 87% 29.85 in 10.0 miles Calm Calm - N/A   Overcast
3:46 PM 33.8°F 28.4°F 81% 29.85 in 10.0 miles Calm Calm - N/A   Overcast
3:55 PM 32.0°F 28.9°F 88% 29.89 in 10.0 miles Calm Calm - N/A   Overcast
4:31 PM 30.2°F 28.4°F 93% 29.86 in 0.5 miles NNW 3.5 mph - N/A Fog Light Freezing Fog
4:37 PM 30.2°F 26.6°F 86% 29.86 in 2.5 miles North 3.5 mph - N/A   Scattered Clouds
4:39 PM 30.2°F 28.4°F 93% 29.86 in 6.0 miles North 3.5 mph - N/A   Mostly Cloudy
4:55 PM 30.9°F 28.9°F 92% 29.90 in 10.0 miles Calm Calm - N/A   Overcast
5:55 PM 28.9°F 27.0°F 92% 29.91 in 9.0 miles Calm Calm - N/A   Overcast
6:55 PM 30.9°F 28.0°F 89% 29.91 in 10.0 miles Calm Calm - N/A   Overcast
7:50 PM 30.2°F 28.4°F 93% 29.89 in 7.0 miles Calm Calm - N/A   Overcast
7:55 PM 30.0°F 28.0°F 92% 29.93 in 7.0 miles North 3.5 mph - N/A   Overcast
8:08 PM 30.2°F 28.4°F 93% 29.89 in 6.0 miles Calm Calm - N/A   Overcast
8:21 PM 30.2°F 28.4°F 93% 29.89 in 6.0 miles Calm Calm - N/A   Overcast
8:47 PM 30.2°F 28.4°F 93% 29.90 in 4.0 miles Calm Calm - N/A   Overcast
8:55 PM 30.0°F 27.0°F 88% 29.93 in 5.0 miles NNE 3.5 mph - N/A   Overcast
9:55 PM 30.9°F 28.0°F 89% 29.95 in 8.0 miles Calm Calm - N/A   Overcast
10:03 PM 30.2°F 28.4°F 93% 29.92 in 8.0 miles Calm Calm - N/A   Overcast
10:55 PM 30.0°F 28.0°F 92% 29.96 in 9.0 miles Calm Calm - N/A   Overcast
11:55 PM 30.0°F 28.0°F 92% 29.97 in 7.0 miles Calm Calm - N/A   Overcast
Moon Phase
Dec. 26 Dec. 28 Jan. 04 Jan. 11 Jan. 18
Sunrise:07:47 AM (PST) Moon Rise:03:15 PM (PST)12/26
Sunset:04:16 PM (PST) Moon Set:06:13 AM (PST)12/26

Copyright © 2014 The Weather Underground, Inc.